Back to catalog

ATLAS 5 CENTAUR DEB

LostHEO
NORAD 44667·DEBRIS·🇺🇸 United States

Launched Oct 17, 2018 from Cape Canaveral Space Force Station

Loading…

Next Passes (next 24 hours)

TLE

StaleSource: Space-Track

Epoch: Sep 6, 2025, 01:43 UTC

1 44667U 18079AD  25249.07164141 -.00000151  00000-0  00000-0 0  9996
2 44667  13.2029  40.4815 4488204 307.5633  19.4455  1.90707590 12745

Track ATLAS 5 CENTAUR DEB in real time with AllMySat

Download on the App Store